Weather History for KLEX - December, 2013

Change the Weather History Date:

Wednesday, December 18, 2013

  Actual Average Record
Temperature  
Mean Temperature 33 °F 35 °F  
Max Temperature 41 °F 43 °F 67 °F (1924)
Min Temperature 24 °F 27 °F -1 °F (1989)
Degree Days  
Heating Degree Days 32 30  
Month to date heating degree days 506 497  
Since 1 July heating degree days 1433 1384  
Cooling Degree Days 0 0  
Month to date cooling degree days 0 0  
Year to date cooling degree days 1245 1190  
Moisture  
Dew Point 19 °F    
Average Humidity 61    
Maximum Humidity 88    
Minimum Humidity 34    
Precipitation  
Precipitation 0.00 in 0.12 in 2.64 in (1990)
Month to date precipitation 2.95 2.34  
Year to date precipitation 56.90 43.58  
Snow  
Snow 0.00 in 0.10 in 2.80 in (1951)
Month to date snowfall 0.6 1.2  
Since 1 July snowfall 2.0 1.5  
Snow Depth 0.00 in    
Sea Level Pressure  
Sea Level Pressure 30.25 in    
Wind  
Wind Speed 10 mph (SW)    
Max Wind Speed 16 mph    
Max Gust Speed 21 mph    
Visibility 9 miles    
Events      
T = Trace of Precipitation, MM = Missing Value Source: NWS Daily Summary

Daily Weather History Graph

Daily Weather History Graph

Search for Another Location

Airport or City:

Trip Planner

Search our weather history database for the weather conditions in past years. The results will help you decide how hot, cold, wet, or windy it might be!

Date:

Astronomy

Dec. 18, 2013 Rise Set
Actual Time 7:49 AM EST 5:21 PM EST
Civil Twilight 7:19 AM EST 5:50 PM EST
Nautical Twilight 6:46 AM EST 6:23 PM EST
Astronomical Twilight 6:14 AM EST 6:55 PM EST
Moon 6:50 PM EST (12/18) 8:29 AM EST (12/18)
Length of Visible Light 10h 30m
Length of Day
9h 31m
Full, 98% of the Moon is Illuminated
Dec 18
Full
Dec 25
Last Quarter
Jan 1
New
Jan 7
First Quarter
Jan 15
Full

Hourly Weather History & Observations

Time (EST) Temp. Windchill Dew Point Humidity Pressure Visibility Wind Dir Wind Speed Gust Speed Precip Events Conditions
12:54 AM 28.0 °F 20.8 °F 25.0 °F 88% 30.23 in 9.0 mi SW 6.9 mph - N/A   Scattered Clouds
1:54 AM 27.0 °F 18.7 °F 23.0 °F 85% 30.23 in 8.0 mi SW 8.1 mph - N/A   Clear
2:54 AM 26.1 °F 17.6 °F 23.0 °F 88% 30.24 in 7.0 mi SW 8.1 mph - N/A   Clear
3:54 AM 26.1 °F 17.6 °F 23.0 °F 88% 30.25 in 6.0 mi SW 8.1 mph - N/A   Clear
4:54 AM 25.0 °F 16.3 °F 21.9 °F 88% 30.25 in 7.0 mi SW 8.1 mph - N/A   Clear
5:54 AM 25.0 °F 18.1 °F 21.9 °F 88% 30.26 in 7.0 mi SW 5.8 mph - N/A   Clear
6:54 AM 24.1 °F 16.0 °F 21.0 °F 88% 30.28 in 7.0 mi SW 6.9 mph - N/A   Clear
7:54 AM 26.1 °F 17.6 °F 21.9 °F 84% 30.29 in 7.0 mi WSW 8.1 mph - N/A   Clear
8:54 AM 27.0 °F 18.7 °F 23.0 °F 85% 30.30 in 7.0 mi WSW 8.1 mph - N/A   Clear
9:54 AM 28.9 °F 18.6 °F 23.0 °F 78% 30.32 in 10.0 mi WSW 12.7 mph - N/A   Clear
10:54 AM 32.0 °F 22.1 °F 21.0 °F 64% 30.33 in 10.0 mi West 13.8 mph - N/A   Clear
11:54 AM 35.1 °F 27.9 °F 18.0 °F 50% 30.32 in 10.0 mi West 9.2 mph - N/A   Clear
12:54 PM 37.0 °F 29.8 °F 16.0 °F 42% 30.30 in 10.0 mi SW 10.4 mph - N/A   Clear
1:54 PM 39.0 °F 32.8 °F 16.0 °F 39% 30.28 in 10.0 mi SW 9.2 mph - N/A   Clear
2:54 PM 39.9 °F 34.5 °F 16.0 °F 38% 30.27 in 10.0 mi SSW 8.1 mph - N/A   Clear
3:54 PM 41.0 °F 35.2 °F 16.0 °F 36% 30.26 in 10.0 mi SSW 9.2 mph - N/A   Clear
4:54 PM 39.0 °F 33.4 °F 16.0 °F 39% 30.25 in 10.0 mi SW 8.1 mph - N/A   Clear
5:54 PM 37.0 °F 31.6 °F 15.1 °F 41% 30.23 in 10.0 mi SSE 6.9 mph - N/A   Clear
6:54 PM 35.1 °F 27.9 °F 15.1 °F 44% 30.21 in 10.0 mi South 9.2 mph - N/A   Clear
7:54 PM 35.1 °F 27.9 °F 16.0 °F 46% 30.21 in 10.0 mi South 9.2 mph - N/A   Clear
8:54 PM 35.1 °F 27.4 °F 18.0 °F 50% 30.19 in 10.0 mi South 10.4 mph - N/A   Clear
9:54 PM 36.0 °F 27.5 °F 19.0 °F 50% 30.16 in 10.0 mi South 12.7 mph - N/A   Clear
10:54 PM 37.0 °F 27.7 °F 19.0 °F 48% 30.15 in 10.0 mi South 16.1 mph - N/A   Clear
11:54 PM 37.9 °F 28.9 °F 19.9 °F 48% 30.12 in 10.0 mi South 16.1 mph - N/A   Clear